Wind_Gust
13 15 15 13 11 11 12 12 9 12 11 13 14 10 10 11 12 12 13 13 14 14 15 16 13 12 14 13 13 11 11 12 12 11 11 10 10 19 13 9 6 7 8 7 9 9 9 9 8 9 10 10 9 8 8 7 7 7 7 6 5 7 8 11 10 10 10 10 10 10 10 9 10 10 10 11 11 11 12 13 14 14 14 14 15
13 14 14 10 12 12 12 13 13 11 11 13 12 11 12 12 12 13 16 13 14 14 15 17 19 14 14 15 14 13 11 13 13 13 11 11 10 19 15 10 7 6 7 7 8 9 10 9 8 9 10 11 10 9 8 8 7 7 7 6 5 5 5 10 10 10 10 10 10 9 9 9 10 10 10 10 10 11 12 13 13 14 13 14 14
10 9 9 11 11 11 13 11 14 13 10 14 13 14 12 9 10 13 16 16 13 13 16 17 18 19 15 16 15 14 14 12 12 14 13 12 12 11 21 13 10 8 6 6 8 7 11 10 10 10 10 10 11 11 10 9 9 8 8 8 6 4 5 8 11 10 10 10 10 10 10 10 10 10 10 10 10 10 11 12 13 13 13 13 13
12 11 12 9 11 12 12 14 14 12 12 15 17 15 13 14 14 11 11 11 15 11 12 16 16 18 16 17 17 16 16 14 15 14 14 11 12 12 13 19 14 10 9 7 6 7 7 10 11 11 10 10 10 10 11 10 10 9 9 9 6 5 3 7 11 10 10 10 10 10 10 10 10 10 10 10 9 9 10 10 12 12 13 13 13
13 13 11 12 13 15 15 15 14 12 12 14 16 14 12 14 14 14 16 14 17 16 13 13 15 15 15 17 17 18 18 17 16 15 14 14 14 13 12 14 17 15 12 10 9 7 6 8 11 11 10 9 9 10 10 10 10 9 9 8 8 7 7 6 10 12 10 10 10 11 10 10 10 10 10 10 9 9 9 10 10 11 12 13 13
11 12 12 13 14 15 13 12 14 13 16 14 15 15 16 16 16 17 16 17 17 16 14 13 15 14 14 17 16 15 16 19 17 16 15 15 14 13 14 14 15 17 21 15 12 10 9 8 11 11 9 10 9 10 10 10 10 10 10 9 8 8 7 7 7 13 11 11 11 11 11 11 11 11 10 10 10 10 9 10 10 11 11 12 12
12 12 12 12 13 14 14 13 13 14 14 15 17 17 16 17 16 17 16 15 17 17 17 12 10 14 14 13 16 17 18 18 17 17 18 16 15 15 14 15 13 14 15 19 14 15 11 10 10 10 11 10 11 11 11 10 10 11 10 10 10 9 9 9 6 12 13 13 12 10 11 11 11 11 12 11 10 10 10 10 10 10 11 11 11
14 15 13 13 12 13 12 13 14 14 13 14 16 18 18 17 15 15 15 16 16 16 17 16 13 11 11 12 13 15 17 18 19 19 19 18 18 16 16 16 15 15 10 14 16 19 17 13 12 10 11 12 11 12 13 11 11 11 10 11 11 10 10 9 9 10 13 13 12 12 13 12 11 12 12 12 11 11 10 10 11 11 10 10 10
12 12 14 15 12 10 12 13 12 12 13 14 16 17 17 18 16 16 15 16 17 14 14 15 15 14 12 12 13 14 17 19 19 19 20 17 17 17 17 17 16 8 15 15 15 15 22 18 15 13 11 11 12 14 14 13 12 11 11 10 12 12 10 11 10 10 13 13 14 13 13 13 13 13 13 13 12 12 11 11 11 11 10 10 10
9 9 10 12 11 10 10 10 11 11 12 13 14 16 17 17 18 17 18 17 16 14 13 13 14 16 15 15 13 15 16 16 17 16 18 18 19 18 17 17 16 16 16 16 16 15 16 21 18 16 14 12 13 15 16 15 15 14 12 11 11 11 12 12 13 12 10 14 15 14 14 14 15 15 14 14 13 13 13 12 12 12 11 11 11
9 9 9 9 9 8 7 8 9 10 10 11 13 14 17 19 18 17 16 17 16 14 12 10 10 15 16 15 15 14 13 15 15 17 18 18 18 18 19 18 17 17 16 17 16 16 16 15 21 22 25 18 15 16 19 17 16 16 15 15 11 15 14 12 12 13 14 14 16 14 15 16 16 15 16 15 15 14 14 14 13 13 12 12 12
10 9 8 7 7 8 8 9 10 10 11 12 12 11 14 17 18 18 17 17 16 14 12 10 8 10 12 16 18 16 16 16 15 18 18 17 17 18 18 18 19 18 18 18 17 17 16 16 15 19 20 24 23 18 19 17 15 15 16 13 14 13 16 15 12 13 15 14 16 16 14 16 16 16 16 17 17 16 16 15 15 14 14 13 13
9 9 9 8 7 6 7 7 9 11 11 10 9 9 10 12 15 17 18 18 15 14 13 13 11 10 10 15 19 20 17 16 16 18 19 17 17 18 17 18 18 16 16 17 17 17 17 17 17 18 18 15 24 21 20 19 17 16 17 17 16 14 14 14 16 14 13 15 15 17 15 17 17 17 17 18 18 17 17 16 16 15 14 13 13
10 9 9 9 9 9 9 9 9 9 8 11 10 9 9 10 11 14 13 14 13 14 15 15 13 12 9 7 13 19 22 17 17 17 19 19 17 16 18 18 20 18 16 17 17 18 19 17 17 17 17 17 18 22 23 25 22 19 18 19 20 19 16 15 15 16 14 15 16 18 17 18 18 18 18 18 18 18 18 18 17 16 15 15 14
10 11 11 10 10 10 10 11 11 11 10 11 11 10 9 9 10 11 12 11 11 9 12 13 11 9 6 5 9 11 17 19 17 15 14 16 17 19 18 19 21 19 17 16 17 17 19 18 18 17 16 17 17 17 19 16 20 20 22 20 22 19 20 18 16 18 18 16 17 19 19 20 20 19 19 19 18 18 19 18 18 18 17 16 16
13 13 12 11 10 10 11 11 12 11 12 12 11 11 11 9 7 8 9 13 12 10 9 11 12 15 12 13 8 8 7 17 18 13 13 14 16 17 17 18 17 17 16 18 19 17 17 17 18 16 16 16 17 17 18 17 18 19 23 23 22 20 23 21 21 18 15 17 18 21 21 22 21 21 20 19 18 18 19 18 19 19 18 18 17
13 12 14 12 11 10 11 11 11 10 9 10 11 11 10 10 9 8 8 9 11 9 10 8 9 8 9 11 10 9 8 5 7 13 9 16 15 17 15 16 17 17 18 18 18 17 16 19 16 17 16 17 17 18 19 19 18 17 23 22 23 22 22 24 24 22 19 16 21 22 23 23 23 23 22 20 20 19 19 19 19 19 19 18 18
13 13 13 13 11 11 10 11 11 10 9 10 11 11 11 10 10 8 9 7 7 9 11 10 13 13 10 11 11 9 8 8 8 13 8 11 15 20 14 12 11 11 14 15 17 17 17 16 16 17 17 18 18 18 18 18 18 18 19 24 22 21 21 21 25 25 23 21 18 22 23 25 24 23 23 21 20 19 20 19 19 19 19 19 19
12 12 12 11 11 10 10 10 12 11 10 10 11 10 11 12 10 10 10 8 7 8 9 10 12 13 13 12 12 11 6 8 10 8 12 12 16 16 13 17 15 13 13 13 10 10 11 14 14 17 17 17 18 19 19 20 16 15 9 7 18 22 21 20 20 22 24 23 21 20 23 26 25 24 23 21 22 20 20 20 20 21 20 20 19
12 12 11 11 11 12 12 12 13 13 13 13 12 12 11 12 11 11 11 11 9 8 8 9 8 10 7 8 10 10 8 7 7 8 11 11 11 11 11 11 13 13 13 14 12 11 11 12 14 14 14 15 15 17 18 19 18 20 19 13 10 17 19 20 19 19 19 20 22 22 22 26 26 25 24 22 21 21 21 22 22 22 21 20 20
12 12 11 14 14 14 14 13 13 12 13 14 13 13 12 11 10 11 11 12 12 9 6 8 7 8 6 6 7 7 7 8 7 7 9 11 11 9 10 9 9 11 9 12 16 16 15 14 15 16 15 13 15 15 15 14 14 16 12 14 17 15 15 17 18 18 18 18 16 22 23 24 26 26 26 25 24 23 23 23 23 23 22 22 21
12 13 13 15 15 15 15 14 13 13 13 15 14 13 12 12 12 11 11 11 11 12 10 9 7 7 8 7 10 8 10 9 6 9 11 13 12 9 8 8 8 9 9 13 10 14 13 16 17 18 17 18 16 15 16 16 15 17 12 10 14 15 15 15 16 17 17 18 17 20 23 23 24 25 28 27 28 26 25 24 24 25 24 24 23
13 13 12 14 13 14 13 13 13 12 13 13 12 14 14 13 14 13 13 12 12 12 12 10 9 10 9 9 8 8 10 10 9 9 11 12 13 14 12 13 12 11 9 11 12 14 16 17 17 18 16 19 19 18 16 15 11 12 6 2 8 12 14 15 15 16 17 16 18 20 23 25 24 23 25 28 28 28 28 26 27 27 26 25 25
13 14 13 13 13 13 13 13 13 12 12 12 12 13 13 13 13 13 14 13 12 12 12 11 10 10 10 9 9 9 7 7 7 9 11 12 12 14 16 15 15 15 12 10 12 14 17 20 19 19 19 19 18 17 17 18 19 5 9 8 8 10 11 13 15 16 17 17 19 20 22 25 25 25 26 27 30 29 30 30 29 27 27 26 26
15 15 14 14 13 14 12 12 13 12 12 12 12 12 12 12 13 13 13 12 13 12 13 12 11 10 10 9 8 8 8 8 7 9 10 10 12 14 15 14 17 17 16 15 18 14 15 16 18 19 19 16 16 13 13 14 15 9 7 9 9 11 12 13 14 15 16 16 17 18 19 21 25 26 28 26 29 30 29 26 23 21 20 21 23
16 15 16 16 14 12 12 12 13 13 13 12 12 11 11 13 13 13 13 13 13 13 13 12 12 10 9 9 9 9 9 8 7 8 8 10 12 12 14 15 15 20 19 18 16 18 15 18 17 16 16 15 13 12 12 14 12 7 6 12 11 12 12 13 13 13 14 16 18 18 18 18 19 20 20 22 21 22 21 22 21 21 20 20 21
16 15 17 16 14 14 13 13 14 13 13 12 12 12 10 11 13 12 12 12 12 11 12 11 12 12 10 9 9 9 9 9 8 7 7 7 10 11 13 16 15 15 17 17 16 16 17 16 17 18 18 14 12 15 14 11 6 8 4 13 13 10 12 13 12 13 15 17 18 18 19 18 18 18 18 16 11 20 24 21 22 23 23 22 21
15 15 17 16 16 15 15 14 14 14 13 13 12 12 11 11 13 12 12 12 12 11 12 12 11 10 10 8 8 10 9 10 9 9 10 8 9 8 10 12 16 18 14 16 15 14 11 15 14 14 14 13 11 10 9 11 11 6 11 14 14 11 11 12 13 14 15 16 16 17 17 18 18 18 18 17 16 13 20 24 23 21 22 23 23
15 15 17 16 16 16 16 15 15 14 14 13 12 12 12 11 12 12 11 11 10 11 9 10 10 9 10 8 8 8 9 8 8 10 10 10 10 9 10 11 12 16 18 19 15 14 11 11 14 11 13 13 10 13 14 17 10 13 16 16 15 16 9 13 13 14 15 16 16 16 17 18 18 18 18 19 19 19 18 22 25 25 26 25 24
16 16 17 17 16 16 16 16 15 14 14 14 13 13 11 11 12 11 12 11 11 11 10 10 9 8 8 8 8 7 8 8 8 8 9 10 11 11 12 11 11 14 15 19 21 15 17 14 16 18 13 14 13 13 15 18 7 12 17 18 17 12 10 6 11 13 15 16 16 16 16 17 18 18 19 20 21 21 19 18 23 26 28 27 26
17 18 19 19 18 18 17 17 17 16 15 14 14 13 12 12 12 12 11 11 11 10 10 9 8 8 8 7 7 7 7 7 8 8 8 10 10 12 11 12 12 13 16 17 22 15 12 14 14 15 17 17 19 18 19 19 12 12 17 17 20 10 10 14 13 15 16 16 17 16 16 16 18 19 18 19 20 19 19 18 22 24 28 30 29
18 19 20 20 20 20 19 19 18 17 17 16 15 14 13 12 12 13 13 12 12 11 11 10 10 8 8 9 8 9 7 10 10 9 10 10 10 13 12 13 13 13 15 18 22 22 15 18 19 20 20 19 17 19 19 19 16 8 18 19 18 10 20 21 14 19 17 17 16 16 16 16 17 18 19 20 21 20 20 21 21 22 26 28 30
19 21 21 22 22 21 21 20 20 19 18 17 16 15 14 13 13 11 13 13 13 12 11 12 11 9 8 8 9 9 9 11 11 11 12 11 12 13 13 14 15 14 15 18 22 24 19 16 18 19 17 17 22 18 19 18 18 18 15 20 20 19 20 21 21 14 18 17 17 16 15 16 17 17 18 19 19 18 18 19 20 21 22 25 26
20 22 23 22 22 22 21 21 20 19 19 18 17 16 16 15 14 13 13 13 12 11 10 11 11 10 9 9 10 8 10 12 11 15 13 12 14 15 14 14 15 15 14 18 20 22 23 18 20 17 19 17 22 18 18 18 18 18 22 20 21 21 21 21 20 17 15 13 13 13 14 15 17 18 17 18 18 17 17 18 20 20 22 26 28
20 21 22 22 22 22 22 21 21 20 19 18 17 16 16 17 17 15 14 14 13 13 13 12 11 10 9 9 10 9 9 10 11 12 12 14 15 16 15 15 16 16 16 17 20 22 21 22 19 21 19 18 18 19 18 19 19 21 23 23 23 22 21 19 21 22 12 12 13 12 13 15 17 18 18 18 17 17 18 18 19 21 22 24 27
19 20 21 23 23 23 23 23 22 21 21 19 18 18 18 17 17 17 16 15 14 13 12 12 12 11 10 10 10 11 11 12 12 12 13 12 13 15 15 15 16 17 17 17 19 21 22 23 19 21 19 20 21 20 19 19 19 20 22 23 21 23 22 22 23 24 17 16 14 13 14 14 16 17 18 17 17 18 19 19 20 21 22 23 26
19 21 21 22 23 25 25 24 23 23 22 21 20 19 17 16 16 16 15 15 14 13 12 11 6 11 10 10 12 12 12 13 13 13 13 12 16 16 16 17 17 17 16 17 19 20 22 23 22 20 20 22 22 21 19 22 20 20 20 21 21 22 21 20 22 23 14 14 13 14 14 16 16 17 17 17 17 17 17 19 19 21 22 24 26
18 18 20 20 20 22 23 23 24 24 24 23 22 21 20 18 16 16 15 14 14 14 13 12 11 10 10 11 11 11 12 13 14 14 15 15 16 16 17 18 19 18 18 19 20 22 23 24 22 23 19 22 21 21 19 20 21 22 20 20 20 21 22 21 21 22 20 20 17 22 14 15 19 19 16 17 17 17 18 19 19 20 22 23 25
19 20 21 22 21 23 24 24 24 25 24 23 22 20 19 19 18 18 17 15 14 13 12 12 11 10 11 11 11 11 12 12 14 15 16 16 17 17 18 18 18 18 19 20 21 22 23 24 24 22 23 21 20 22 19 18 19 21 22 21 20 18 17 17 18 18 16 17 13 11 14 16 8 10 16 19 17 18 19 18 19 21 22 24 25
22 24 24 25 24 25 27 25 23 22 22 22 21 20 19 19 19 18 18 16 15 14 12 11 11 11 11 11 12 12 12 13 13 14 15 17 17 18 18 18 18 19 20 20 20 22 23 23 24 24 22 22 20 19 20 18 19 19 20 19 19 17 18 19 20 21 21 22 23 20 17 19 18 17 13 16 18 18 17 15 18 20 22 23 23
22 24 25 27 28 29 27 25 25 24 24 22 23 24 20 20 19 18 17 16 14 13 12 12 11 11 12 12 13 14 12 7 6 9 12 11 20 21 20 20 20 21 21 21 22 22 23 23 24 23 24 23 21 20 20 19 19 18 16 17 21 21 21 22 22 21 21 21 21 21 22 19 23 22 21 21 22 22 20 18 14 19 21 20 22
20 21 24 25 26 25 25 27 23 19 17 19 14 14 10 18 18 17 15 14 14 13 11 11 11 12 13 14 14 7 9 10 12 12 13 15 15 21 24 21 21 21 22 23 23 23 24 25 25 24 25 24 22 20 21 19 19 19 20 19 21 19 20 22 23 24 22 22 22 23 23 21 21 22 22 22 17 19 17 20 21 19 17 22 22
20 21 24 27 26 26 28 26 23 19 19 14 16 13 10 8 13 14 14 13 12 11 11 11 12 13 15 15 16 11 12 14 22 19 18 17 17 18 19 19 18 26 24 25 25 23 26 27 26 26 26 26 24 22 22 22 20 20 20 20 21 21 21 22 24 18 14 17 21 22 22 19 19 22 23 22 21 21 18 21 10 15 15 18 22
19 19 23 25 26 25 26 27 24 22 18 14 17 16 13 10 6 14 13 13 12 11 11 11 13 14 15 16 15 15 16 17 18 18 18 18 20 19 19 19 19 20 20 27 27 27 25 27 28 27 27 27 26 23 23 21 21 20 20 20 21 22 22 23 23 22 17 15 20 22 24 19 20 23 23 23 20 18 17 9 6 12 15 16 18
17 20 21 23 24 26 26 25 24 22 18 17 18 17 14 12 7 6 13 11 10 10 10 12 13 15 15 17 17 16 18 8 16 21 21 19 15 21 21 20 21 21 20 22 23 31 30 31 29 29 28 26 26 25 22 23 21 24 23 25 23 23 24 25 24 24 21 18 21 24 26 23 21 23 25 23 21 21 17 11 13 11 13 15 16
19 19 20 21 22 24 25 24 23 20 21 17 19 17 15 12 6 4 11 11 9 10 12 12 13 14 15 17 18 18 17 17 18 19 19 19 19 19 20 22 24 24 26 28 27 26 28 34 32 34 28 26 30 25 24 24 28 28 27 27 25 27 26 27 23 25 24 21 24 25 30 26 22 23 25 23 21 21 24 13 14 12 12 14 15
21 21 21 22 23 23 23 22 21 20 21 19 19 18 16 12 8 5 11 11 11 11 12 12 14 14 16 17 17 19 19 19 18 13 18 19 20 20 21 22 23 24 24 23 26 30 30 31 33 33 32 31 32 31 30 30 30 31 31 30 29 29 31 30 32 30 30 27 26 27 34 24 20 24 25 23 23 23 21 13 13 12 10 13 15
21 20 20 21 22 22 21 20 19 21 20 19 19 18 15 12 11 13 13 12 12 13 13 14 14 16 16 16 18 19 19 19 13 5 9 19 20 22 23 23 24 25 25 17 17 17 25 28 27 28 27 24 16 21 20 21 23 23 24 28 28 29 31 32 34 28 30 25 25 29 31 27 23 26 25 22 22 23 21 16 13 11 7 10 11
21 21 21 21 21 21 20 19 20 21 19 17 18 17 14 13 11 13 11 13 13 13 14 14 15 16 16 16 17 20 19 20 9 4 4 6 22 24 25 26 28 28 29 28 19 17 16 17 20 22 24 25 26 26 25 24 24 22 26 28 29 27 30 34 33 31 30 25 27 27 29 30 24 24 25 22 22 23 22 19 15 11 8 6 8
22 22 20 20 19 19 18 19 23 23 19 16 18 15 13 13 8 10 11 12 12 14 15 14 15 16 16 8 13 20 20 20 6 5 3 10 24 27 28 29 30 31 30 28 29 27 16 17 19 20 21 22 21 23 26 27 27 21 29 38 33 30 37 34 36 31 28 26 26 24 30 32 24 23 25 22 21 26 21 21 12 13 11 8 7
19 18 19 20 18 16 16 20 19 24 21 16 15 15 12 11 10 9 10 13 14 15 16 17 16 17 18 13 13 16 17 16 11 12 11 15 25 25 27 29 31 30 30 28 30 28 28 28 27 27 25 24 28 31 31 24 26 26 35 38 36 36 40 36 33 31 34 32 25 21 32 28 26 26 25 25 26 23 22 20 14 11 10 9 10
Wind_Speed
5 6 5 3 3 3 3 3 1 2 2 5 5 3 4 4 4 4 5 5 6 6 6 7 5 5 5 5 5 4 4 5 4 4 4 3 3 10 11 7 4 5 6 5 6 6 6 6 5 6 6 7 6 6 5 4 4 5 5 3 3 4 5 7 7 7 7 7 7 7 7 7 7 7 7 7 8 8 8 9 9 10 10 11 11
6 5 2 2 3 3 3 3 4 2 2 4 2 3 4 4 4 5 6 5 5 6 7 7 8 6 5 6 5 5 4 5 5 5 4 3 3 8 12 9 6 5 5 5 6 7 7 7 6 6 7 8 7 6 6 6 4 5 5 4 3 3 2 7 7 7 6 7 7 7 7 7 7 7 7 7 7 8 8 8 9 9 10 10 11
3 1 2 1 2 2 3 3 4 3 2 2 6 5 4 0 2 5 6 6 4 5 7 8 8 8 7 6 6 5 5 4 5 5 5 4 4 4 10 11 9 7 5 5 6 4 8 7 7 7 7 7 7 8 7 6 6 6 5 5 4 2 2 6 8 7 6 7 7 7 7 7 7 7 7 7 7 7 7 8 8 8 9 10 10
5 2 1 1 2 4 3 4 4 3 4 6 7 5 4 3 6 3 4 3 5 4 5 6 7 8 7 7 7 6 6 5 6 5 5 4 4 4 4 9 11 9 8 6 5 5 5 8 8 8 7 7 7 7 8 7 7 6 6 6 4 3 2 5 8 8 7 7 7 7 7 7 7 7 7 7 7 7 7 7 8 8 8 9 9
4 3 2 3 4 5 4 4 4 4 5 5 7 5 5 5 6 6 4 4 7 6 5 5 6 6 6 8 7 7 7 7 6 6 5 5 5 4 5 5 8 13 10 8 8 6 5 6 8 8 7 7 6 7 7 7 7 6 6 5 6 5 4 4 8 9 7 7 7 8 7 7 7 7 7 7 7 7 7 7 7 7 8 9 9
2 3 3 4 5 5 4 3 5 7 7 6 5 6 6 7 7 7 8 7 6 7 5 5 6 6 6 8 7 7 7 7 7 6 6 6 5 5 5 5 5 7 9 12 10 9 8 6 9 9 7 7 7 7 6 7 7 7 7 6 6 6 5 5 5 10 9 8 7 8 8 8 8 8 7 7 7 7 7 7 7 7 8 8 8
4 3 4 5 5 4 4 5 6 6 6 6 7 8 7 7 7 7 7 7 8 7 7 5 4 6 6 5 6 6 7 7 7 7 7 7 6 6 5 5 5 5 6 8 12 12 10 9 8 8 9 8 8 8 8 7 7 8 7 7 7 7 7 6 4 9 10 9 9 8 8 8 8 8 8 8 8 7 7 7 7 7 7 7 8
5 5 4 4 3 4 4 4 6 6 5 6 7 7 7 7 6 6 6 7 7 7 7 7 5 4 5 5 5 6 7 7 8 8 8 7 7 7 6 6 6 5 5 5 6 11 14 11 10 8 9 10 9 9 9 8 8 8 7 8 8 7 7 7 6 7 10 10 9 9 10 9 8 9 9 9 8 8 8 7 8 8 7 7 7
4 5 5 5 4 2 4 5 4 4 4 6 7 6 6 7 6 6 6 6 7 7 6 7 7 6 5 5 5 6 7 7 7 7 8 8 7 7 6 7 6 5 6 6 6 6 16 15 13 11 9 9 10 11 11 10 9 9 9 8 9 9 8 8 8 7 10 9 11 10 10 10 10 10 10 9 9 9 9 9 8 8 8 7 7
2 2 3 4 3 3 3 3 4 4 4 5 5 7 7 7 7 6 7 6 5 6 6 6 6 7 7 7 6 6 7 7 7 7 7 7 8 8 7 7 7 7 6 6 6 6 6 14 15 13 12 11 11 12 13 12 12 11 9 8 8 8 8 9 9 9 8 11 12 11 11 11 12 12 11 10 10 10 10 9 9 8 8 8 8
2 2 3 3 3 2 2 3 3 3 3 3 5 6 7 8 8 7 6 6 6 5 4 3 4 5 6 7 7 7 5 5 6 6 7 8 8 8 8 7 7 7 7 7 6 6 7 6 9 10 11 15 13 14 15 14 13 13 12 12 8 11 11 9 9 10 11 11 12 11 12 12 12 12 12 12 11 11 10 10 10 10 9 9 9
1 1 1 1 2 2 3 3 4 3 4 4 3 3 6 7 9 8 7 6 5 4 3 3 2 3 4 6 8 8 8 6 7 8 8 8 7 7 7 7 8 8 8 7 7 7 7 7 7 8 8 15 18 15 16 14 13 13 13 11 11 11 13 12 9 10 12 11 13 12 12 13 13 12 13 13 12 12 12 11 11 11 10 9 9
1 2 2 1 1 0 1 1 3 4 3 3 3 4 4 5 6 6 8 8 5 4 3 3 2 3 3 5 6 10 9 7 8 9 8 7 7 8 7 7 8 7 7 7 7 8 7 7 7 7 7 6 13 17 17 16 15 13 14 14 13 11 11 11 13 11 11 12 12 13 12 14 14 13 13 13 13 13 13 12 12 11 11 10 10
2 1 2 1 1 1 1 1 0 1 1 3 3 2 3 3 4 5 5 6 4 6 4 4 3 4 3 2 1 1 10 9 7 8 9 8 8 7 8 8 9 8 7 7 7 8 8 7 7 7 7 7 7 10 11 13 14 16 15 16 16 15 13 12 12 13 11 13 13 14 14 14 14 14 14 14 14 13 13 13 13 13 12 11 11
2 3 2 2 2 2 3 3 3 3 3 3 3 2 1 2 4 4 4 3 3 2 5 5 3 2 0 1 2 2 4 5 7 5 5 7 7 9 8 9 10 9 7 7 6 7 8 8 8 8 7 7 7 7 8 10 12 17 18 17 17 16 16 14 13 15 15 13 14 15 15 16 16 15 15 14 14 14 13 14 14 14 13 13 12
4 4 3 3 2 3 3 3 4 3 3 4 4 4 3 2 1 1 3 5 3 3 1 3 3 4 3 4 2 3 1 5 7 5 3 4 5 7 7 7 8 8 7 7 7 7 7 7 8 8 7 7 7 7 7 7 12 16 19 19 18 17 18 17 16 14 12 14 15 17 16 17 17 17 16 15 14 14 14 14 14 14 14 14 14
4 4 4 4 3 3 3 3 3 2 1 2 2 3 2 2 3 2 2 3 3 2 3 1 2 1 2 2 3 3 3 2 2 4 3 5 5 6 6 6 7 7 7 8 8 7 7 7 8 7 8 8 8 8 8 8 7 9 13 18 19 18 18 19 19 17 16 13 17 18 18 18 18 18 17 16 16 15 14 14 14 14 14 14 14
4 4 4 4 4 3 3 3 3 2 1 2 2 2 2 2 2 1 3 0 1 3 3 3 4 3 2 2 2 1 2 2 2 2 1 1 3 8 5 3 2 4 5 6 7 6 7 7 7 7 7 8 8 8 8 8 8 8 8 11 18 18 17 18 19 20 18 17 15 18 17 19 18 18 18 16 16 15 15 15 15 14 14 14 14
4 4 4 3 3 3 3 3 3 3 2 2 3 3 3 3 3 3 2 1 1 1 2 3 3 4 4 4 5 4 2 1 1 1 3 0 2 6 1 5 6 4 4 4 4 3 2 4 5 6 7 7 7 8 8 9 10 9 7 3 16 18 18 17 17 18 19 18 17 16 19 18 19 18 17 17 17 16 16 16 16 16 15 15 14
4 3 4 3 3 4 4 4 4 4 3 4 3 3 3 3 4 3 3 3 2 1 1 2 1 2 2 2 3 3 2 1 2 2 2 2 2 4 2 3 5 5 4 5 4 3 2 3 5 5 5 6 6 6 7 8 9 9 9 11 9 14 16 17 16 16 15 16 18 18 18 19 20 19 18 18 17 17 17 17 17 16 16 15 15
3 4 4 5 5 5 5 5 4 4 4 4 4 4 4 4 4 3 4 4 3 2 1 1 1 2 1 1 2 1 2 2 1 2 3 2 2 2 1 2 3 4 2 3 5 5 5 5 6 6 7 5 5 6 6 6 5 6 8 12 14 13 13 15 15 15 15 14 12 17 18 17 19 20 20 20 19 18 19 18 17 17 17 16 16
4 5 5 6 6 6 6 5 4 4 4 5 5 5 4 4 4 4 4 4 4 3 3 2 1 1 2 2 3 2 4 2 1 3 4 5 5 2 1 1 1 2 2 4 4 4 5 6 7 6 6 8 8 6 7 6 6 6 6 9 12 13 13 13 14 14 14 14 13 15 18 18 18 19 21 20 21 21 20 19 18 19 19 17 18
5 5 5 5 5 5 5 5 5 4 4 4 4 4 4 4 5 5 5 4 4 4 4 3 2 2 1 2 1 1 3 3 3 3 4 5 5 6 5 5 5 4 4 5 5 5 6 6 7 6 7 8 7 7 6 6 7 6 5 3 7 10 11 12 13 13 14 13 14 16 17 19 19 16 18 21 22 21 22 20 20 21 20 19 18
5 5 5 5 4 4 5 4 4 4 4 3 4 4 4 4 4 4 4 5 4 4 4 4 2 2 2 2 2 2 1 1 1 2 3 4 4 5 5 5 6 5 3 3 5 6 7 8 9 9 9 8 8 7 7 7 8 1 3 5 5 7 9 10 12 13 14 14 14 15 17 19 19 20 20 21 22 22 22 23 21 21 21 20 20
6 6 6 7 5 5 4 4 4 4 4 4 4 4 3 4 4 4 4 4 4 4 4 4 3 2 2 2 1 1 1 1 1 2 3 3 4 5 6 5 6 6 5 6 6 6 7 7 7 8 8 7 6 5 4 5 6 5 4 6 8 9 10 11 12 13 13 13 14 14 15 17 19 20 22 21 22 23 22 21 19 17 17 17 18
7 6 7 7 5 5 4 4 4 5 5 4 4 3 3 4 4 4 5 4 5 5 5 4 4 3 2 2 2 2 2 1 0 2 2 3 4 4 5 5 6 7 7 6 6 6 5 7 8 7 7 7 6 4 5 6 4 5 2 6 4 9 10 10 11 11 12 13 14 14 15 15 16 17 16 18 17 17 17 18 18 17 17 17 17
6 6 8 7 6 6 6 5 6 5 5 5 4 4 3 3 4 4 3 4 4 3 4 4 4 4 4 2 2 1 1 1 1 1 1 1 3 4 5 6 5 6 6 5 5 6 6 5 6 6 7 7 5 6 6 3 2 7 2 5 6 8 11 11 10 11 12 12 14 14 14 14 15 15 15 13 10 15 19 18 17 18 18 18 17
6 7 8 7 7 7 7 6 6 6 5 5 5 4 4 3 4 4 4 3 4 4 4 4 4 3 3 2 1 2 2 2 2 1 3 1 2 2 3 4 6 6 5 5 4 4 2 4 4 5 6 5 4 3 4 5 1 2 9 6 6 3 9 10 11 11 11 12 13 13 14 15 15 15 14 14 14 11 16 20 19 18 18 17 18
6 7 8 7 7 7 7 7 6 6 6 5 4 4 4 4 4 4 4 4 3 3 2 3 3 2 3 1 1 1 1 1 1 2 2 3 3 2 3 4 4 6 6 6 5 4 3 2 4 3 5 5 3 4 5 7 3 5 7 7 6 7 4 10 10 11 11 12 13 13 14 14 15 15 14 15 15 15 14 16 19 20 21 20 19
7 7 8 8 8 8 7 7 7 6 6 6 5 5 4 4 4 4 3 3 3 3 3 3 2 2 1 0 1 1 1 2 1 2 2 3 3 3 3 3 3 5 5 7 7 6 6 6 6 6 4 5 4 3 5 7 7 5 7 8 8 4 6 5 8 10 11 12 13 13 12 13 14 14 16 16 15 15 15 13 17 21 22 22 21
8 8 9 9 8 9 8 8 7 7 7 6 6 5 5 4 4 4 4 4 3 3 2 2 1 1 1 1 1 0 0 1 2 2 2 3 3 4 3 4 4 4 6 6 8 5 3 5 5 6 7 8 7 8 7 8 3 4 7 8 10 5 8 9 10 12 13 13 13 13 12 13 14 15 15 15 15 16 15 15 17 18 19 21 22
9 10 10 10 10 10 9 8 8 8 8 7 7 6 5 5 5 4 5 4 4 4 3 3 2 2 1 2 1 2 1 3 3 2 3 3 3 4 4 4 4 5 6 7 8 9 6 7 7 8 10 9 8 8 9 7 7 6 9 9 9 9 9 10 13 16 14 14 14 13 13 13 14 14 14 15 16 15 15 16 17 16 19 21 21
9 10 11 11 11 11 10 9 9 9 8 8 7 6 6 6 5 4 5 5 5 4 4 4 3 2 1 1 2 2 2 4 3 4 4 4 4 5 5 5 5 5 6 7 9 9 7 6 7 7 7 8 9 9 9 8 8 8 9 9 10 9 9 9 9 12 15 15 14 13 12 13 13 14 14 14 15 14 13 14 15 16 17 20 21
10 11 12 11 11 11 10 10 10 9 9 8 8 7 6 7 6 5 5 5 5 4 3 3 3 2 2 2 2 1 2 4 4 6 4 4 5 5 5 5 6 6 5 7 8 9 10 7 8 7 8 7 9 8 8 8 9 9 10 9 8 10 9 9 8 7 13 12 11 11 11 12 13 14 14 14 14 13 13 13 14 15 16 19 20
9 10 11 12 12 11 11 10 10 10 10 9 8 7 7 8 7 7 6 6 5 5 5 4 3 3 2 2 2 1 2 3 3 5 4 5 5 6 6 6 7 7 7 7 8 9 10 9 8 8 7 7 7 8 8 8 9 9 11 10 10 9 9 9 8 9 10 11 11 10 11 11 13 14 14 15 14 13 13 14 14 15 17 18 20
9 9 11 12 12 12 12 12 12 11 11 9 9 8 8 8 8 7 7 6 6 5 5 4 4 3 2 2 2 2 2 3 4 4 4 4 5 5 6 6 7 7 7 7 9 9 9 10 8 8 7 8 8 9 8 8 8 9 9 10 9 10 10 9 10 11 8 12 12 11 12 12 12 13 14 14 13 14 14 14 15 16 18 19 20
9 8 9 9 11 12 12 13 12 12 11 11 10 9 8 8 8 7 7 7 6 5 5 4 2 3 3 3 3 3 3 4 4 4 4 5 6 6 7 7 7 7 6 7 8 9 10 10 9 8 8 9 9 9 8 9 8 8 9 9 8 9 10 10 10 9 11 12 12 12 13 13 13 14 14 14 14 14 14 15 15 16 17 19 20
9 9 10 10 10 11 11 12 12 13 12 12 12 11 10 9 8 7 7 6 6 5 5 4 4 3 3 3 3 3 3 4 4 4 5 6 6 7 8 7 8 8 8 9 9 10 11 11 10 10 8 8 9 8 9 9 9 9 8 8 9 9 9 9 9 8 8 7 6 9 11 11 16 16 14 14 14 14 15 15 16 16 17 18 20
10 9 11 12 11 13 13 13 13 12 12 12 10 10 9 9 9 9 8 7 6 5 4 4 3 3 3 4 3 4 4 4 5 5 5 6 6 8 8 8 8 8 8 8 9 10 10 11 11 10 10 9 9 9 8 7 8 9 9 9 8 6 6 6 7 6 6 7 9 10 10 11 5 6 14 16 15 15 15 15 15 16 17 19 19
11 12 12 13 12 12 13 13 12 11 11 11 10 9 9 9 9 9 8 7 7 6 5 4 4 3 3 4 4 4 5 5 5 5 6 7 7 8 7 7 8 8 9 9 9 9 10 11 10 10 9 9 8 8 8 8 8 8 7 7 8 7 6 7 8 9 9 10 10 8 11 13 12 12 11 14 16 15 15 13 15 15 17 18 19
9 12 12 13 14 15 15 12 13 13 12 11 11 11 10 10 9 9 8 7 6 5 5 4 4 4 4 4 5 6 4 4 5 6 8 7 7 9 9 9 9 10 10 9 10 9 10 10 11 10 10 9 9 8 8 8 8 7 6 6 9 9 9 9 8 9 9 9 9 9 9 9 10 10 9 9 10 16 14 15 12 16 17 16 17
10 11 12 12 13 13 13 14 13 9 6 7 9 12 10 9 9 7 6 6 6 5 4 3 4 4 5 5 6 6 6 8 10 11 11 12 12 11 10 9 9 10 10 10 10 10 10 11 11 11 11 10 9 9 9 8 8 8 9 9 9 8 8 9 9 9 10 10 10 10 10 9 9 10 10 10 7 10 7 9 8 10 13 18 18
10 10 10 12 13 12 14 14 12 9 8 6 12 11 9 6 7 7 6 6 5 4 4 4 4 4 5 6 6 6 8 11 13 16 14 13 13 14 15 14 13 12 11 11 11 11 11 12 11 11 12 12 11 10 10 10 9 9 9 8 9 9 9 8 9 6 6 7 8 9 9 9 8 10 10 10 9 9 8 10 9 13 13 15 17
9 9 11 13 13 13 13 15 13 10 9 11 15 13 12 9 5 6 5 5 4 4 4 4 4 4 5 6 6 6 7 8 8 8 11 15 16 15 15 15 15 16 15 14 12 12 12 12 13 13 13 13 12 11 10 9 9 9 9 9 9 9 10 10 9 8 5 6 8 9 10 8 8 10 10 10 9 8 7 4 5 10 12 11 13
8 10 11 12 13 13 14 14 13 12 8 14 15 14 12 10 7 3 5 4 3 4 3 4 4 5 6 6 7 6 7 5 7 10 10 9 12 17 17 16 17 17 16 18 18 16 14 15 14 15 13 12 13 11 10 10 10 11 11 11 10 10 10 11 10 9 8 7 9 10 12 10 9 10 11 10 9 9 7 9 11 10 10 11 12
8 9 11 12 12 13 13 12 12 10 10 13 16 14 13 11 6 1 4 4 2 3 4 4 4 5 6 7 7 7 7 8 8 9 9 9 9 8 9 10 11 15 20 22 20 20 19 17 16 17 15 13 14 12 12 12 13 13 12 12 11 12 12 13 12 12 10 8 9 9 12 11 9 10 11 10 9 10 11 9 13 11 10 10 11
9 9 10 11 12 12 13 11 10 10 9 15 15 15 13 11 7 4 4 4 3 4 4 5 6 6 7 7 8 9 8 8 8 6 8 9 9 9 10 11 11 12 11 11 14 15 14 15 16 17 16 15 16 16 15 15 16 15 15 16 16 15 15 16 16 15 14 12 12 11 13 10 8 10 11 10 10 10 9 8 11 10 8 7 10
8 9 10 10 11 12 11 11 10 11 10 15 16 15 13 10 9 5 5 4 4 5 5 6 6 6 7 7 7 8 9 9 10 2 4 8 10 10 11 12 12 12 11 11 12 12 13 13 12 13 13 12 11 10 10 10 10 10 11 12 13 14 15 15 15 12 13 10 12 13 12 12 10 11 11 9 9 10 9 5 8 9 6 1 7
9 10 10 10 10 11 11 10 11 11 10 12 15 14 12 11 8 5 4 4 5 5 6 6 6 7 7 7 7 7 9 10 5 3 3 4 10 11 12 13 12 12 12 11 13 14 13 13 15 16 17 18 19 18 17 16 12 10 11 12 13 11 14 16 15 14 13 10 11 12 12 13 10 10 10 9 10 10 9 8 6 8 8 3 6
10 10 9 9 9 9 10 10 12 12 10 11 15 13 11 11 6 3 3 4 4 5 6 6 6 6 7 5 8 10 10 10 1 5 3 4 10 12 14 15 15 15 13 11 11 11 12 13 15 17 18 18 18 18 19 18 18 14 13 17 17 13 17 15 16 13 12 11 11 11 13 13 10 10 11 9 9 10 9 9 4 7 10 7 6
9 9 8 9 8 8 8 10 15 15 11 10 13 12 10 9 4 3 3 3 5 5 6 7 7 7 7 8 11 10 10 10 9 9 7 8 11 13 14 15 16 16 14 15 15 15 14 15 14 14 13 15 16 16 18 19 20 19 18 17 15 17 18 18 16 14 14 13 11 11 13 12 11 11 10 9 10 9 9 9 5 3 4 3 3
Wind_Direction
224 217 218 203 208 210 203 208 277 248 195 212 224 206 232 230 206 206 196 203 216 221 225 230 210 212 223 216 224 212 210 212 214 207 216 187 224 150 167 178 223 243 258 207 180 169 171 170 183 157 170 173 176 182 175 172 179 158 149 140 101 82 136 130 125 123 122 119 119 115 109 109 102 101 100 95 91 90 89 89 86 86 82 77 79
233 233 237 199 217 222 230 208 210 239 315 289 258 231 221 219 213 206 199 204 217 220 235 223 223 210 220 227 202 223 199 208 209 212 201 208 215 137 168 164 198 222 244 275 212 173 176 188 169 172 170 175 176 187 183 175 187 185 155 161 135 69 105 147 137 130 130 124 119 118 117 120 116 110 110 107 101 99 96 94 94 91 90 85 81
272 266 47 248 263 257 229 226 229 212 223 247 269 227 227 193 284 233 212 202 225 216 220 232 229 212 210 225 219 214 209 220 216 211 221 213 208 187 163 170 180 201 230 238 288 237 181 193 175 185 182 181 179 181 187 193 179 195 187 157 168 123 92 159 143 141 135 136 133 133 128 124 125 117 112 114 110 106 107 105 105 102 95 93 90
271 262 198 182 242 241 236 227 225 225 206 217 220 218 205 172 218 262 301 224 190 229 238 241 221 230 206 215 219 214 213 211 227 216 225 226 234 209 189 175 177 185 200 225 245 273 244 191 188 196 189 188 182 186 186 192 191 190 208 168 166 160 159 159 151 148 146 145 144 139 137 134 129 129 118 113 115 114 113 112 108 107 105 100 94
256 253 223 221 226 233 232 224 225 208 222 243 254 219 205 193 205 196 187 218 186 210 218 240 238 235 238 212 217 224 224 210 217 234 229 229 227 231 218 197 184 185 189 199 215 239 242 218 196 203 196 195 184 184 187 190 190 196 212 197 184 181 178 165 174 154 160 155 151 150 146 140 135 131 131 123 124 121 115 113 110 104 105 102 102
239 240 225 207 222 226 211 210 222 207 220 216 226 219 212 211 200 192 190 190 202 192 200 216 235 232 226 243 222 225 227 228 218 225 228 237 236 232 231 215 207 190 193 191 202 212 223 233 213 214 200 198 189 189 187 191 191 199 206 211 206 191 193 195 197 169 162 164 163 161 151 148 147 140 140 135 129 127 124 116 109 106 105 105 103
229 235 225 230 226 231 214 212 219 214 223 217 218 213 210 209 203 202 184 199 197 182 198 204 226 232 230 233 241 232 230 241 233 231 226 227 242 239 235 235 223 223 198 194 193 205 208 210 226 222 214 204 200 190 192 194 188 199 208 210 214 203 203 202 211 186 161 170 169 164 160 155 153 151 147 147 140 135 132 126 121 121 114 112 112
217 227 226 231 237 231 224 219 214 208 201 207 213 217 210 212 214 214 186 199 200 193 195 200 218 223 232 228 234 242 244 233 233 230 231 231 224 230 226 227 221 227 229 222 197 195 199 203 214 220 216 216 206 200 202 203 198 199 202 201 208 212 207 208 215 197 180 177 176 170 166 165 162 161 157 153 153 145 143 141 136 130 131 126 121
211 221 236 235 230 233 224 221 215 209 205 205 208 217 216 208 210 213 212 205 201 194 202 204 207 228 235 239 234 243 246 244 242 237 239 229 239 232 231 236 225 221 230 232 227 205 187 199 204 210 212 212 215 208 209 210 210 206 204 203 199 203 208 216 214 216 198 193 181 180 177 172 167 168 166 161 159 157 151 150 148 142 137 134 129
189 205 225 241 221 222 234 224 209 201 203 214 218 213 215 218 212 211 212 216 209 200 209 214 216 219 230 235 243 238 243 250 247 246 240 227 224 239 227 227 227 222 226 229 237 230 196 194 200 203 207 208 211 211 213 214 215 216 208 211 200 197 209 213 215 220 214 201 189 189 180 174 173 171 170 169 167 165 162 157 156 153 147 146 139
158 185 231 229 226 218 263 267 235 223 201 211 207 216 216 211 221 211 224 226 227 223 216 217 251 241 232 237 247 249 253 248 240 242 240 237 230 220 224 222 231 229 226 230 228 227 226 204 200 208 206 205 207 211 213 217 220 221 216 215 208 193 204 216 213 210 220 210 205 196 187 176 177 178 174 175 173 172 172 166 164 161 158 153 152
164 208 216 238 240 226 205 230 243 228 226 226 237 232 213 220 221 219 219 225 222 219 190 181 211 260 284 264 248 248 249 243 244 234 229 229 233 231 232 224 219 219 221 229 227 229 224 221 213 211 219 191 200 204 210 213 219 231 235 226 216 209 200 206 217 212 211 217 206 206 193 182 180 184 182 179 178 177 176 174 172 168 165 163 159
166 188 159 240 262 10 190 205 222 232 224 242 226 223 231 235 224 212 225 216 208 210 204 205 216 247 229 256 274 277 252 242 247 238 235 232 231 236 236 240 232 225 226 226 229 228 228 225 222 230 225 211 191 200 205 209 212 219 232 237 234 222 215 212 206 215 208 211 207 208 196 185 183 187 187 187 183 182 179 179 178 173 171 170 168
130 132 176 179 140 138 109 113 92 127 191 144 153 190 193 208 217 214 223 247 220 192 182 177 218 236 238 260 279 271 307 274 242 243 237 231 229 234 235 238 237 229 229 224 228 234 235 227 230 233 231 232 211 193 203 209 212 214 218 227 230 237 232 223 215 208 207 206 201 199 194 187 189 191 191 192 189 189 183 183 181 177 176 175 174
133 143 139 140 119 92 87 74 77 85 97 98 107 102 121 181 210 229 190 201 213 200 195 207 207 177 46 342 265 313 223 300 289 248 238 239 235 231 232 233 237 239 225 225 230 236 238 237 233 230 234 235 246 230 210 206 213 201 212 219 224 227 232 238 231 209 207 200 198 195 189 191 195 195 196 197 196 193 192 188 185 182 180 178 177
130 132 128 101 87 91 87 78 72 53 48 55 53 84 118 90 76 225 218 189 181 196 276 218 217 156 204 213 167 195 13 259 247 247 272 258 246 241 234 240 249 244 240 235 234 240 240 246 244 236 237 245 248 246 245 237 193 192 199 213 218 220 226 229 234 236 212 195 194 194 189 192 195 199 199 198 201 202 202 197 191 188 185 183 181
95 100 110 112 102 85 83 85 77 70 69 80 75 32 44 79 97 92 341 338 150 157 162 99 226 207 277 171 162 208 206 175 223 261 268 269 262 256 230 249 238 237 239 240 242 237 242 245 248 251 245 241 242 245 249 247 225 207 198 205 212 216 218 224 227 230 235 208 191 197 194 194 200 203 204 205 205 206 205 202 201 195 192 189 186
117 108 102 108 106 103 104 111 104 104 65 77 95 103 50 32 15 68 113 130 348 144 116 97 71 53 17 345 312 298 143 136 178 269 116 64 333 309 330 326 323 245 249 248 247 253 247 245 240 241 242 245 248 250 245 247 243 239 232 198 205 212 215 219 223 227 227 231 209 201 204 204 201 202 206 206 206 205 205 203 202 204 199 196 193
117 113 113 110 110 106 105 91 93 92 74 66 69 49 56 38 10 45 24 33 213 151 116 138 117 71 31 32 38 359 347 177 210 338 259 264 280 238 28 301 307 321 300 298 254 218 245 279 266 251 249 243 246 248 248 245 244 247 257 250 190 204 209 213 220 224 227 227 230 216 209 207 206 204 206 205 205 205 204 206 204 206 205 200 198
135 131 129 127 114 110 106 101 107 105 109 97 79 67 67 67 51 49 41 39 18 25 56 21 349 86 50 30 124 207 267 353 52 296 306 287 249 272 146 200 261 265 282 269 294 323 291 271 264 248 236 246 237 241 241 246 244 232 223 211 195 201 206 212 214 222 228 231 227 227 221 211 208 201 203 204 205 204 203 207 207 207 207 205 202
129 127 126 115 118 109 106 101 91 95 98 95 79 72 61 62 59 52 50 52 49 38 314 105 352 23 293 52 307 283 192 156 360 234 265 295 254 223 109 259 316 261 261 322 310 299 317 317 308 302 298 265 257 253 254 253 244 235 242 185 202 198 205 210 213 216 222 229 232 230 230 220 219 209 203 207 206 202 200 202 209 207 208 207 206
131 129 126 123 116 116 109 101 96 78 66 75 88 82 77 73 63 64 63 70 62 55 36 36 360 3 293 295 271 272 252 240 230 316 275 248 271 296 282 280 268 253 322 285 261 289 279 275 275 274 272 273 254 242 243 245 242 243 238 171 190 203 207 208 210 215 218 222 225 232 233 233 224 219 210 206 210 208 200 201 204 209 208 209 208
139 136 132 126 123 115 112 107 100 101 105 113 100 98 96 87 84 77 69 66 74 74 77 58 58 73 11 8 23 332 328 299 303 289 293 286 279 268 266 251 255 256 199 215 237 248 254 251 261 246 251 260 275 274 257 246 250 260 337 104 184 204 209 211 210 212 216 219 222 226 232 236 236 224 221 213 210 212 208 203 203 208 208 209 208
156 149 151 144 140 126 121 118 108 106 102 96 109 112 109 104 98 93 89 85 86 85 78 79 66 81 41 25 30 22 44 326 336 285 297 303 296 291 282 284 271 264 259 231 246 260 253 240 220 213 211 223 229 229 249 253 249 268 299 249 211 212 215 216 217 215 215 220 224 227 229 231 236 235 221 221 215 211 213 211 211 209 209 209 209
172 167 162 163 158 150 150 134 121 113 107 105 96 95 106 107 98 102 96 94 87 83 82 72 62 39 63 50 6 64 94 75 324 313 303 295 285 279 276 289 290 294 283 263 257 236 239 242 249 261 253 238 247 245 259 258 272 156 207 264 217 218 218 222 220 219 218 219 226 230 232 233 234 235 234 226 216 210 211 212 210 208 205 206 208
176 183 166 175 171 162 154 135 123 125 123 117 115 114 124 123 122 107 110 103 100 100 96 90 80 66 51 68 45 63 39 32 249 248 289 287 281 284 295 293 288 283 281 272 266 268 236 232 234 236 250 256 254 266 256 282 286 86 268 296 249 212 218 223 225 225 222 220 223 230 235 236 235 236 238 237 225 209 215 210 205 202 200 201 203
181 183 168 181 171 168 159 150 144 138 134 133 131 129 126 117 113 117 111 111 112 99 91 84 77 69 50 46 100 69 14 25 310 310 220 261 293 302 298 294 283 263 270 268 268 255 268 271 284 273 256 260 252 244 261 270 1 102 283 254 270 197 209 215 227 224 224 225 223 227 233 240 239 238 238 240 238 213 205 208 204 203 199 199 200
182 174 173 182 177 170 167 162 155 151 148 147 152 142 144 143 130 131 127 128 126 129 127 116 98 89 75 40 36 54 21 13 320 19 324 322 246 247 270 279 292 296 293 291 286 276 283 287 274 262 266 256 262 294 318 304 295 33 226 274 283 252 190 209 218 225 229 233 233 230 231 233 237 240 240 238 236 228 211 200 199 203 203 201 201
177 172 174 182 181 179 176 167 165 160 157 159 156 147 159 158 141 145 142 141 142 124 109 111 124 141 107 92 32 101 56 336 345 343 338 306 301 284 258 273 296 292 296 295 292 300 283 323 309 323 337 327 329 313 300 292 48 13 312 288 296 290 168 208 210 224 232 238 238 233 233 231 235 237 236 235 232 230 224 212 200 198 200 201 201
181 173 177 180 183 184 182 175 172 170 169 168 166 157 169 156 146 158 137 141 148 141 140 128 115 121 118 65 345 145 65 309 17 317 314 316 296 298 290 265 245 268 285 289 290 299 292 287 262 269 271 286 315 284 290 284 94 336 300 296 295 295 49 254 219 229 233 240 245 244 238 238 238 235 234 232 230 231 228 221 213 207 203 198 196
188 182 181 183 185 187 188 184 179 179 177 174 171 172 178 156 167 154 154 179 167 148 136 129 146 153 137 191 242 239 251 267 280 253 270 278 291 282 279 286 278 267 276 277 282 279 286 292 306 307 306 305 300 299 291 286 299 5 292 287 275 11 329 292 239 217 223 229 236 238 241 239 238 238 240 239 236 230 227 223 219 216 207 201 198
192 188 191 188 188 189 190 188 185 185 184 180 184 176 184 171 181 173 160 181 173 175 166 172 163 171 176 205 242 317 334 292 264 251 271 260 272 286 284 282 273 266 269 269 269 277 282 290 294 293 288 285 288 287 285 287 282 309 290 281 283 301 275 267 228 216 214 219 219 224 228 235 239 241 239 239 239 237 231 225 223 215 210 207 201
189 190 197 195 193 192 191 191 191 189 188 186 187 184 193 180 188 168 164 183 183 178 168 170 183 189 190 257 238 219 266 283 288 284 271 278 266 261 268 270 270 266 267 275 278 283 282 280 282 285 294 298 287 282 285 287 287 282 279 278 279 278 275 269 267 201 208 210 213 214 221 229 235 238 239 240 242 240 233 230 227 221 215 210 205
192 193 197 197 197 196 197 195 194 193 193 191 190 192 196 183 182 173 184 183 195 164 183 185 157 188 186 247 297 297 286 290 292 285 282 266 265 263 252 250 265 272 261 273 278 283 288 291 286 289 291 288 284 281 281 287 286 286 283 283 278 274 267 270 265 252 185 204 204 213 222 227 234 240 237 235 239 237 234 231 227 223 220 214 209
199 199 199 195 198 198 198 198 196 196 196 194 193 198 195 191 186 182 186 188 186 183 189 190 203 158 215 219 255 268 257 270 276 274 280 270 271 274 274 272 271 269 271 267 277 280 285 286 289 285 279 279 278 287 284 281 284 289 287 282 279 272 272 267 263 268 167 180 185 204 217 221 232 238 241 241 238 234 230 228 226 224 221 218 213
205 204 202 197 194 197 198 200 198 194 194 192 193 200 198 195 192 186 187 186 189 193 198 199 196 201 228 253 250 264 275 279 282 290 279 279 275 280 281 272 261 257 259 262 257 269 277 281 281 282 288 291 285 280 279 274 273 271 277 287 285 281 275 265 261 262 163 160 175 192 204 215 227 235 240 244 240 236 232 228 225 222 222 219 216
210 202 203 204 202 200 199 199 197 195 195 191 193 196 194 194 195 189 188 187 187 192 192 199 206 246 243 259 280 287 282 281 277 273 290 294 289 284 283 283 278 275 264 256 263 266 275 277 279 277 279 274 275 279 280 281 279 276 278 274 281 289 288 286 283 273 274 236 222 204 197 206 217 225 232 236 236 234 231 229 224 222 222 221 218
206 197 193 187 204 210 208 205 200 196 196 192 194 192 189 187 190 186 191 186 190 193 186 209 210 220 251 271 278 279 283 283 284 289 287 285 286 281 280 284 289 291 286 281 277 272 272 272 274 278 269 273 278 272 277 278 280 282 281 283 282 276 275 274 269 271 265 266 236 209 202 206 213 217 217 224 230 230 231 228 225 222 220 220 220
215 194 182 194 197 205 205 206 204 199 197 194 193 190 187 186 187 185 185 186 188 186 196 202 212 226 249 259 263 265 267 270 279 280 285 285 276 277 275 274 272 271 272 272 272 275 275 277 277 275 278 270 262 272 269 271 277 279 282 284 279 274 274 279 282 280 265 260 252 249 262 275 268 198 203 215 219 226 229 228 226 224 221 220 219
219 204 200 200 203 204 207 205 202 196 196 191 190 187 190 192 189 184 183 185 186 184 191 208 206 226 238 251 253 262 264 266 277 287 287 279 283 278 275 272 273 271 272 271 268 267 268 270 272 278 276 281 277 269 271 266 265 264 260 273 286 295 295 296 290 285 282 280 279 263 213 216 233 237 217 208 211 217 221 226 228 228 223 223 220
225 218 213 210 204 206 205 205 196 192 186 174 182 181 185 196 189 185 182 183 185 190 195 204 213 228 246 250 258 258 276 329 332 297 285 294 286 276 275 276 272 271 270 269 270 269 267 268 270 269 270 270 273 278 276 274 272 285 303 302 289 287 285 281 276 275 279 277 274 267 265 255 245 236 219 213 206 205 213 216 222 216 224 223 222
231 233 233 223 212 206 192 199 198 185 169 178 154 170 188 190 184 181 173 177 188 197 204 216 230 243 251 264 258 248 247 244 242 240 242 249 248 256 270 273 273 271 269 270 270 270 271 272 270 272 271 268 270 272 276 278 284 283 279 274 273 278 281 278 276 268 260 261 264 262 260 251 248 248 248 242 228 172 217 200 213 223 208 213 218
229 226 226 224 225 208 200 196 189 176 173 166 145 144 135 161 177 166 173 178 180 192 209 226 255 262 264 267 279 253 219 222 226 226 239 237 233 239 245 253 267 273 277 273 268 268 272 273 273 269 266 267 266 268 270 276 276 276 276 278 278 277 275 280 282 286 283 278 272 276 271 268 264 260 251 246 233 227 224 242 216 203 217 201 211
228 222 219 226 224 218 210 207 192 175 179 130 134 125 121 118 139 167 171 173 181 203 214 240 256 268 279 283 280 279 274 277 291 271 231 221 228 231 232 239 241 245 250 257 265 267 266 267 266 264 266 265 268 266 269 269 271 271 270 272 275 278 275 271 271 273 284 314 301 287 282 282 276 266 262 252 248 245 239 237 169 197 207 210 209
223 228 226 222 220 217 210 197 184 180 152 139 130 128 118 109 107 165 171 176 194 201 234 254 269 283 288 288 285 278 279 258 251 254 265 262 218 214 228 230 233 235 238 238 245 255 267 267 268 268 266 273 271 266 267 276 283 284 284 274 271 273 274 272 268 269 264 276 283 274 271 272 279 275 266 254 249 248 220 187 206 192 202 216 220
223 226 226 219 220 214 205 192 177 163 138 141 130 126 121 118 116 225 162 164 212 239 249 261 267 275 278 281 284 282 280 275 274 271 277 275 288 273 242 242 249 230 220 228 232 233 235 249 257 262 266 271 272 274 276 276 273 272 274 274 275 272 269 270 275 274 273 270 265 276 273 265 261 265 263 266 252 245 247 204 182 194 194 210 225
228 228 227 223 216 211 198 181 168 146 130 135 129 129 127 131 140 229 167 173 218 231 235 250 256 261 268 266 271 275 278 276 272 297 288 292 289 281 272 272 268 273 273 253 232 228 230 231 244 253 261 262 265 269 269 267 269 273 273 274 272 273 274 278 277 273 270 262 260 255 260 262 253 256 257 258 259 247 244 129 145 155 190 218 238
233 233 231 224 212 199 179 162 146 126 128 136 132 132 134 138 166 200 183 197 229 233 246 253 254 261 261 264 270 276 278 276 277 221 265 287 286 283 280 275 273 272 268 260 267 291 290 283 277 268 265 277 300 297 306 310 309 305 311 302 276 265 266 265 263 263 257 249 238 241 252 258 249 254 258 254 257 258 249 178 138 155 141 240 271
236 233 229 221 208 195 163 146 125 119 129 136 131 134 140 153 192 206 185 230 234 234 251 257 258 257 256 258 266 284 286 281 306 78 164 248 279 282 282 281 279 277 271 272 260 247 248 268 277 280 280 277 276 278 279 281 282 291 291 281 266 270 262 261 262 261 258 251 242 234 249 256 248 249 254 247 248 254 251 237 135 102 82 33 282
234 231 225 208 195 163 135 126 126 128 132 137 137 142 152 174 229 234 231 252 253 264 264 259 264 266 265 238 250 269 272 270 356 84 95 280 283 285 286 286 284 279 276 275 272 264 239 228 241 254 265 274 276 274 273 273 272 267 261 256 255 257 258 258 262 262 264 254 242 238 249 249 252 247 253 250 246 236 236 247 214 124 131 185 200
239 225 208 199 163 124 109 115 124 127 133 142 145 149 159 173 213 229 262 273 278 274 283 282 277 279 278 260 210 223 253 266 265 268 280 277 280 285 286 285 281 277 277 279 278 279 276 274 269 260 247 236 237 245 251 240 240 247 253 256 254 249 254 257 259 264 263 253 246 239 246 248 245 243 246 247 241 235 226 225 146 235 266 272 225